SL-16 DEB, 39873

Orbit data source: Space-Track

SL-16 DEB, 39873 is space debris in LEO originally from a launch on Fri, 26 Mar 1993 UTC launched from the Tyuratam Missile And Space Complex (TTMTR). Debris objects in space refer to the collection of defunct objects orbiting the Earth. Examples of debris include non-operational satellites, rocket bodies, and fragments generated from explosions, collisions, or faulty payload assembly.

Loading next visibility...
Identifier
39873, 1993-016AX
Orbit
LEO
Country
Flag of CISCIS
Related business
Manufacturer
Unknown
Mission
Spacecraft
Bus & Motor
Unknown
Mass
Unknown
Launch date (UTC)
1993-03-26 (33 years ago)
Launch vehicle
Unknown
Launch site
Tyuratam Missile And Space Complex (TTMTR)
Object type
Payload
Rocket body
Debris
Shape & HBR
Unknown shape, 0.1 m
Radar Cross Section
Small (<0.1 m²)

Expand to show TLE details & history
Last TLE update: 1 day ago

TLE from 1 day ago
0 SL-16 DEB
1 39873U 93016AX  26254.63823097  .00002368  00000-0  65718-3 0  9995
2 39873  70.3915 338.4807 0080175  29.2091 331.3490 14.45800795637927
Epoch: 2026-09-11T15:19Z
TLE epoch observation values (Epoch: 2026-09-11T15:19:03.155Z)
Latitude
-0.00012°
Longitude
118.0588°
Altitude
691.812 km
Speed
7.537 km/s
True Right ascension
22h 33m 55s
True Declination
0° 00' 00"
Sunlit
Object was in full shadow at epoch
Visualization orbit readout
Latitude
Unknown
Longitude
Unknown
Altitude
Unknown
Speed
Unknown
Apparent Right ascension
Unknown
Apparent Declination
Unknown
Sunlit
N/A
Visualization observer readout
Local Sidereal Time
10:37:58
Azimuth
Unknown
Elevation
Unknown
Doppler factor
Unknown
Orbital elements
Apogee altitude
794.401 km
Perigee altitude
680.304 km
Semi-major axis
7,115.49 km
Eccentricity
0.00802
Inclination
70.3915°
RAAN
338.4807°
Arg. of periapsis
29.2091°
True anomaly
330.90459°
Mean anomaly
331.349°
Eccentric anomaly
331.12719°
Mean motion
3.61606 °/min
Orbital period
99.56 mins
BSTAR
0.00065718
Loading maneuver chart data...
Computing Atmospheric mass density...
Loading historical data...
Loading historical data...
Loading historical data...
Loading historical data...
Loading historical data...
Loading historical data...
Loading historical data...

Documentation

Showing up to 5 results
|